This is the latest recevied weather packets stored in our database for station/object NR6G-12. If no packets are shown the sender has not sent any weather packets the latest 10 day(s).
| Time | Temp. | Humidity | Pressure | Rain* | Wind** | Luminosity | Snow |
|---|---|---|---|---|---|---|---|
| 1777397219 | 8.89° C | 83% | 1018.4 hPa | 0 mm | - | - | - |
| 1777396859 | 8.33° C | 84% | 1018.5 hPa | 0 mm | - | - | - |
| 1777396499 | 8.33° C | 83% | 1018.4 hPa | 0 mm | - | - | - |
| 1777396139 | 8.33° C | 80% | 1018.4 hPa | 0 mm | - | - | - |
| 1777395779 | 8.33° C | 79% | 1018.4 hPa | 0 mm | - | - | - |
| 1777395419 | 8.33° C | 79% | 1018.5 hPa | 0 mm | - | - | - |
| 1777395059 | 8.33° C | 81% | 1018.4 hPa | 0 mm | - | - | - |
| 1777394699 | 7.78° C | 81% | 1018.5 hPa | 0 mm | - | - | - |
| 1777394339 | 7.78° C | 79% | 1018.4 hPa | 0 mm | - | - | - |
| 1777393979 | 7.78° C | 81% | 1018.4 hPa | 0 mm | - | - | - |
| 1777393619 | 7.22° C | 79% | 1018.3 hPa | 0 mm | - | - | - |
| 1777393259 | 7.22° C | 78% | 1018.2 hPa | 0 mm | - | - | - |
| 1777392721 | 7.78° C | 80% | 1018.1 hPa | 0 mm | - | - | - |
| 1777392361 | 7.78° C | 78% | 1018 hPa | 0 mm | - | - | - |
| 1777392001 | 7.22° C | 81% | 1018 hPa | 0 mm | - | - | - |
| 1777391640 | 7.22° C | 79% | 1017.9 hPa | 0 mm | - | - | - |
| 1777391281 | 7.22° C | 80% | 1017.8 hPa | 0 mm | - | - | - |
| 1777390921 | 7.22° C | 79% | 1017.7 hPa | 0 mm | - | - | - |
| 1777390561 | 7.22° C | 80% | 1017.6 hPa | 0 mm | - | - | - |
| 1777390201 | 6.67° C | 81% | 1017.7 hPa | 0 mm | - | - | - |
| 1777389841 | 6.67° C | 84% | 1017.6 hPa | 0 mm | - | - | - |
| 1777389481 | 6.11° C | 84% | 1017.4 hPa | 0 mm | - | - | - |
| 1777389121 | 6.11° C | 83% | 1017.4 hPa | 0 mm | - | - | - |
| 1777388761 | 5.56° C | 84% | 1017.2 hPa | 0 mm | - | - | - |
| 1777388401 | 5.56° C | 84% | 1017 hPa | 0 mm | - | - | - |
* Rain latest hour (hover to see other rain measurements)
** Current wind speed in m/s (hover to see current wind gust speed)